sat.trackr.live / text

‹ back to catalog

UNKNOWN

NORAD 81624

UNKNOWN UNKNOWN UNKNOWN

§ Identity

Operator
Country
Launch date
Launch site
Launch vehicle
Mass (kg)
RCS (m²)

External: N2YO · Heavens-Above

§ Orbital elements

Epoch: 2026-05-22T02:30:26.976096Z

Period
97.75 min
Inclination
66.9741°
Eccentricity
0.0055765
Mean motion
14.73139520 rev/d
Perigee alt
611.9 km
Apogee alt
690.3 km
Semi-major
7,029.2 km
B*
6.3118e-4
RAAN
83.0044°
Arg perigee
101.0262°
Mean anomaly
259.7139°
Rev number
66,331

§ Raw data

UNKNOWN1 81624U          26142.10447889  .00004068  00000+0  63118-3 0  99962 81624  66.9741  83.0044 0055765 101.0262 259.7139 14.73139520663315

JSON: /api/v1/satellites/81624 · /tle

For live sub-satellite position, see the globe view (requires WebGL).

§ Visibility from observer

Set your observer location to see the next 7 days of passes ≥ 10°. The values pass through the URL so the page stays shareable.

No JS? Fill the form by hand. The geolocation button needs JavaScript.